Regional Weather Roundup
Issued by NWS

Home | Current Version | Previous Version | Text Only | Print | Product List | Glossary On
Versions: 1 2 3 4 5 6 7 8 9 10 11 12 13 14 15 16 17 18 19 20 21 22 23 24 25 26 27 28 29 30 31 32 33 34 35 36 37 38 39 40 41 42 43 44 45 46 47 48 49 50
000
ASUS43 KOAX 022310
RWRNE

WEATHER ROUNDUP FOR NEBRASKA
NATIONAL WEATHER SERVICE OMAHA NE
600 PM CDT MON MAY 02 2016

NOTES: SATELLITE DATA IS BEING USED TO AUGMENT CLOUD COVER ABOVE
       12000 FEET.
       "FAIR" INDICATES FEW OR NO CLOUDS BELOW 12,000 FEET WITH NO
       SIGNIFICANT WEATHER AND/OR OBSTRUCTIONS TO VISIBILITY.

  * THESE STATIONS DO NOT REPORT WEATHER SUCH AS RAIN...SNOW OR FOG.

NEZ001>004-019>022-054>056-030000-
NEBRASKA PANHANDLE

CITY           SKY/WX    TMP DP  RH WIND       PRES   REMARKS
SCOTTSBLUFF    PTSUNNY   65  29  25 NW21G30   30.01F
ALLIANCE       PTSUNNY   61  32  33 N13       30.01F
CHADRON        CLOUDY    62  35  36 NE12      30.01F
KIMBALL        SUNNY     57  28  33 NW12      30.09F
SIDNEY         SUNNY     58  28  32 NW14      30.07F
$$

NEZ057>060-069>072-079>082-030000-
SOUTHWEST NEBRASKA

CITY           SKY/WX    TMP DP  RH WIND       PRES   REMARKS
NORTH PLATTE   CLOUDY    57  32  38 NE7       30.04F
IMPERIAL       SUNNY     60  29  30 NW8       30.07F
LEXINGTON      CLOUDY    59  38  44 CALM      30.04F
MCCOOK         CLOUDY    62  34  35 NW13      30.05F
OGALLALA       MOSUNNY   55  33  42 W9        30.06F
$$

NEZ005>010-023>029-035>040-094-030000-
NORTH CENTRAL NEBRASKA

CITY           SKY/WX    TMP DP  RH WIND       PRES   REMARKS
VALENTINE      CLOUDY    60  31  33 N6        30.01F
AINSWORTH      CLOUDY    58  36  44 S3        30.03S
BROKEN BOW     CLOUDY    59  36  42 SW3       30.04F
O`NEILL        CLOUDY    61  32  33 CALM      30.03F
ORD            MOSUNNY   59  37  44 S6        30.03F
THEDFORD       CLOUDY    59  34  39 SW3       30.04F
$$

NEZ041-046>049-061>064-073>077-083>087-030000-
SOUTH CENTRAL NEBRASKA

CITY           SKY/WX    TMP DP  RH WIND       PRES   REMARKS
GRAND ISLAND   CLOUDY    60  35  39 NW3       30.07F
AURORA         CLOUDY    59  35  40 CALM      30.07S
HASTINGS       CLOUDY    59  37  44 N5        30.07S
HEBRON         MOSUNNY   60  37  42 NW3       30.06F
HOLDREGE       MOSUNNY   58  37  44 CALM      30.06S
KEARNEY *      CLOUDY    59  36  41 CALM      30.07S
YORK           CLOUDY    59  37  44 W5        30.07S
$$

NEZ011>018-030>034-042>045-030000-
NORTHEAST NEBRASKA

CITY           SKY/WX    TMP DP  RH WIND       PRES   REMARKS
NORFOLK        CLOUDY    60  35  39 W3        30.04S
ALBION         CLOUDY    60  37  42 CALM      30.05S
BLAIR          PTSUNNY   64  39  40 SW7       30.05S
COLUMBUS *     CLOUDY    61  34  36 NW6       30.06F
FREMONT        MOSUNNY   63  36  36 W3        30.05F
TEKAMAH        SUNNY     62  35  36 CALM      30.04F
WAYNE          MOSUNNY   62  39  42 SW3       30.04F
$$

NEZ050>053-065>068-078-088>093-030000-
SOUTHEAST NEBRASKA

CITY           SKY/WX    TMP DP  RH WIND       PRES   REMARKS
LINCOLN        MOSUNNY   64  36  35 W5        30.07S
OMAHA EPPLEY   PTSUNNY   64  38  38 CALM      30.05S
BEATRICE       MOSUNNY   61  38  41 NW3       30.05F
FALLS CITY     CLOUDY    62  42  47 NE7       30.05F
NEBRASKA CITY  SUNNY     61  36  39 CALM      30.06S
PLATTSMOUTH    PTSUNNY   61  36  39 NE3       30.05S
$$

NEZ044-045-051>053-067-030000-
OMAHA AREA

CITY           SKY/WX    TMP DP  RH WIND       PRES   REMARKS
OMAHA EPPLEY   PTSUNNY   64  38  38 CALM      30.05S
BLAIR          PTSUNNY   64  39  40 SW7       30.05S
FREMONT        MOSUNNY   63  36  36 W3        30.05F
MILLARD        CLOUDY    63  38  39 CALM      30.05S
OFFUTT AFB     PTSUNNY   64  39  39 W6        30.04F
PLATTSMOUTH    PTSUNNY   61  36  39 NE3       30.05S
WAHOO          FAIR      63  37  38 SW3       30.05F
$$



USA.gov is the U.S. government's official web portal to all federal, state and local government web resources and services.